User: anonymous   Login
Location: Unspecified
(0.0000°N, 0.0000°E)
Time: 00:28:12
(UTC+01:00)
Language:

ARIANE 5 R/B - Orbit

View from above orbital plane
View from above orbital plane
View from above satellite
View from above satellite

Ground track
Ground track

The orbit data is extracted from the following two-line orbital elements,

1 28379U 04027B   17053.98902487 -.00000324  00000-0  12391-2 0  9993
2 28379   7.2395   6.5086 7289983 357.3289 230.4061  2.07931673 95766
Epoch (UTC): 22 February 2017 23:44:11
Eccentricity: 0.7289983
inclination: 7.2395°
perigee height: 648 km
apogee height: 38453 km
right ascension of ascending node: 6.5086°
argument of perigee: 357.3289°
revolutions per day: 2.07931673
mean anomaly at epoch: 230.4061°
orbit number at epoch: 9576

The dashed part of the orbit path shows where the satellite is in the earth's shadow,  

DLR